Location: *
(2.5500°S, 65.9667°W)
Time: 22:34:19
(UTC+00:00)

SRMSAT - Pass Details

Date: 08 July 2022
Orbit: 848 x 865 km, 20.0° (Epoch: 15 August)

Event Time Altitude Azimuth Distance (km) Brightness Sun altitude
Exits shadow 08:57:06 25° 189° (S) 1,641 ? -22.2°
Drops below altitude 10° 09:01:30 10° 141° (SE) 2,464 ? -21.2°
Sets 09:04:31 0° 128° (SE) 3,402 ? -20.5°
